Regional Weather Roundup
Issued by NWS

Home | Current Version | Previous Version | Text Only | Print | Product List | Glossary Off
Versions: 1 2 3 4 5 6 7 8 9 10 11 12 13 14 15 16 17 18 19 20 21 22 23 24 25 26 27 28 29

000
ASUS45 KBOU 310407
RWRCO

WEATHER ROUNDUP FOR COLORADO
NATIONAL WEATHER SERVICE DENVER/BOULDER CO
1000 PM MDT THU OCT 30 2014

NOTE: "FAIR" INDICATES FEW OR NO CLOUDS BELOW 12000 FEET WITH NO
SIGNIFICANT WEATHER AND/OR OBSTRUCTIONS TO VISIBILITY.

COZ001>005-013-030-031-310500-
...NORTHWEST COLORADO...

CITY           SKY/WX    TMP DP  RH WIND       PRES   REMARKS
CRAIG          CLEAR     34  27  75 SE3       30.32F
HAYDEN         CLEAR     43  27  52 E9        30.32F
MEEKER         CLEAR     42  29  59 E7        30.32S
MOUNT WERNER   NOT AVBL
STEAMBOAT SPGS CLEAR     41  28  59 CALM      30.35S
WALDEN         CLEAR     30  25  80 SE8       30.40F WCI  23
$$

COZ006>008-011-310500-
...WEST CENTRAL VALLEYS...

CITY           SKY/WX    TMP DP  RH WIND       PRES   REMARKS
GRAND JUNCTION CLEAR     48  25  40 E6        30.22S
MONTROSE       PTCLDY    45  26  47 SE12      30.31R
EAGLE          CLEAR     39  25  56 E6        30.38R
RIFLE          CLEAR     45  25  45 SE3       30.29R
DELTA          PTCLDY    47  24  41 NE6       30.28R
NUCLA          PTCLDY    46  23  39 E10       30.31S
$$

COZ017>023-064>068-310500-
...SOUTHWEST COLORADO...

CITY           SKY/WX    TMP DP  RH WIND       PRES   REMARKS
DURANGO        CLEAR     42  26  53 N5        30.34R
CORTEZ         CLEAR     40  24  53 NE3       30.30R
PAGOSA SPRINGS CLEAR     38  21  48 CALM      30.41R
TELLURIDE      PTCLDY    44  19  35 SE7       30.46S
WOLF CREEK PAS NOT AVBL
$$

COZ009-010-012-014-032>034-037-058>063-310500-
...CENTRAL COLORADO...

CITY           SKY/WX    TMP DP  RH WIND       PRES   REMARKS
ASPEN          CLEAR     38  23  55 SW8       30.39S
BUENA VISTA    CLEAR     40  21  47 E6        30.47R
COPPER MTN     CLEAR     37  14  38 S15       30.58S
BERTHOUD PASS  FAIR      30  27  86 W6        30.61R WCI  24
COTTONWOOD PAS CLEAR     41  19  42 CALM      30.52R
GUNNISON       CLEAR     36  16  44 CALM      30.42R
KREMMLING      PTCLDY    34  27  75 CALM      30.41S
LEADVILLE      CLEAR     33  13  43 SE8       30.49R WCI  26
MONARCH PASS   CLEAR     37  14  38 SW3       30.69S
SALIDA         CLEAR     45  22  41 SE3       30.53R
SUNLIGHT       CLEAR     41  21  45 CALM      30.54S
WILKERSON PASS NOT AVBL
$$

COZ069>075-310500-
...SAN LUIS VALLEY/SANGRE DE CRISTO MOUNTAINS...

CITY           SKY/WX    TMP DP  RH WIND       PRES   REMARKS
ALAMOSA        PTCLDY    38  20  48 SE5       30.37R
LA VETA PASS   CLEAR     32  21  64 N10       30.54R WCI  24
SAGUACHE       PTCLDY    37  18  44 NW10      30.40S
$$

COZ035-036-038>040-310500-
...NORTHERN COLORADO FRONT RANGE...

CITY           SKY/WX    TMP DP  RH WIND       PRES   REMARKS
DENVER INTL AP CLEAR     40  26  57 S12       30.39S
DMNS CITY PARK   N/A     48  27  43 S3        30.40S
AURORA         CLEAR     43  26  52 SE10      30.41R
FRONT RANGE AP CLEAR     41  30  65 S12       30.41R
ERIE MUNI ARPT CLEAR     40  29  64 CALM      30.40R
BOULDER MUN AP CLEAR     45  30  57 W3        30.40R
CENTENNIAL     CLEAR     45  27  49 S12       30.41R
BROOMFIELD     CLEAR     48  28  46 S3        30.41R
FORT COLLINS   CLEAR     48  27  43 S6        30.42R
LONGMONT       CLEAR     43  30  61 W3        30.42R
$$

COZ041-046-047-076>085-087-088-310500-
...PIKES PEAK/PALMER DIVIDE AND SOUTHERN FOOTHILLS...

CITY           SKY/WX    TMP DP  RH WIND       PRES   REMARKS
COLO. SPRINGS  CLEAR     45  24  43 SE9       30.45R
A. F. ACADEMY  CLEAR     32  22  67 N8        30.44R WCI  25
ELLICOTT       CLEAR     41  24  51 E8        30.43R
FALCON         CLEAR     37  23  56 CALM      30.47R
FORT CARSON    CLEAR     47  24  41 SW7       30.43R
LIMON          CLEAR     32  24  72 CALM      30.43R
MONUMENT HILL  CLEAR     34  23  64 S8        30.44R WCI  27
TRINIDAD       CLEAR     46  23  40 CALM      30.43R
$$

COZ042>045-048>051-090-091-310500-
...NORTHEAST COLORADO...

CITY           SKY/WX    TMP DP  RH WIND       PRES   REMARKS
GREELEY ARPT   CLEAR     43  25  49 E5        30.40S
AKRON          CLEAR     41  28  60 E8        30.41R
BURLINGTON     CLEAR     40  26  57 E9        30.41R
WRAY           CLEAR     42  29  59 NE5       30.41R
STERLING       NOT AVBL
HOLYOKE        CLEAR     37  30  75 NE5       30.41R
FORT MORGAN    CLEAR     42  26  54 E5        30.41R
$$

COZ086-089-092>099-310500-
...SOUTHEAST COLORADO...

CITY           SKY/WX    TMP DP  RH WIND       PRES   REMARKS
PUEBLO         CLEAR     43  23  45 N3        30.40R
LA JUNTA       CLEAR     50  27  40 SE5       30.39R
LAMAR          CLEAR     40  26  57 S7        30.37R
SPRINGFIELD      N/A     41  25  53 N5        30.39R
$$



USA.gov is the U.S. government's official web portal to all federal, state and local government web resources and services.